• In Hungary
  • List of Countries
  • For 7 days
  • Water Temperature
  • Satellite Maps
  • Weather Map
  • News
  • Weather Widgets
  • user-avatar
    Login

    Hourly Weather Pazardzhik

    Today, 22 October, Monday

    Time Temperature Precipitation Wind Pressure Humidity
    00:00 +14°C° 0.1 mm 1 mps 747 mmHg 86%
    01:00 +14°C° 0.1 mm 1 mps 747 mmHg 87%
    02:00 +14°C° 0 mm 1 mps 747 mmHg 89%
    03:00 +14°C° 0.1 mm 1 mps 747 mmHg 90%
    04:00 +14°C° 0.1 mm 1 mps 747 mmHg 90%
    05:00 +13°C° 0.1 mm 1 mps 747 mmHg 91%
    06:00 +14°C° 0 mm 1 mps 747 mmHg 90%
    07:00 +14°C° 0 mm 1 mps 747 mmHg 89%
    08:00 +14°C° 0 mm 1 mps 748 mmHg 89%
    09:00 +15°C° 0 mm 1 mps 747 mmHg 83%
    10:00 +16°C° 0 mm 1 mps 747 mmHg 77%
    11:00 +18°C° 0 mm 1 mps 747 mmHg 72%
    12:00 +18°C° 0 mm 1 mps 747 mmHg 68%
    13:00 +19°C° 0 mm 1 mps 747 mmHg 64%
    14:00 +19°C° 0 mm 1 mps 746 mmHg 61%
    15:00 +19°C° 0 mm 1 mps 746 mmHg 63%
    16:00 +18°C° 0 mm 1 mps 746 mmHg 65%
    17:00 +18°C° 0 mm 1 mps 745 mmHg 67%
    18:00 +16°C° 0 mm 1 mps 746 mmHg 71%
    19:00 +14°C° 0 mm 1 mps 746 mmHg 76%
    20:00 +13°C° 0 mm 1 mps 746 mmHg 81%
    21:00 +13°C° 0 mm 1 mps 746 mmHg 81%
    22:00 +12°C° 0 mm 0 mps 746 mmHg 82%
    23:00 +11°C° 0 mm 0 mps 746 mmHg 83%

    Tomorrow, 23 October, Tuesday

    Time Temperature Precipitation Wind Pressure Humidity
    00:00 +11°C° 0 mm 0 mps 747 mmHg 84%
    01:00 +11°C° 0 mm 0 mps 747 mmHg 84%
    02:00 +11°C° 0 mm 1 mps 747 mmHg 85%
    03:00 +11°C° 0 mm 1 mps 746 mmHg 86%
    04:00 +11°C° 0 mm 1 mps 746 mmHg 86%
    05:00 +11°C° 0 mm 1 mps 746 mmHg 87%
    06:00 +11°C° 0 mm 1 mps 746 mmHg 83%
    07:00 +12°C° 0 mm 1 mps 746 mmHg 80%
    08:00 +13°C° 0 mm 1 mps 747 mmHg 77%
    09:00 +15°C° 0 mm 1 mps 746 mmHg 68%
    10:00 +18°C° 0 mm 1 mps 746 mmHg 59%
    11:00 +20°C° 0 mm 1 mps 746 mmHg 51%
    12:00 +20°C° 0 mm 1 mps 746 mmHg 48%
    13:00 +21°C° 0 mm 1 mps 745 mmHg 46%
    14:00 +21°C° 0 mm 1 mps 744 mmHg 43%
    15:00 +20°C° 0 mm 1 mps 744 mmHg 47%
    16:00 +19°C° 0 mm 1 mps 744 mmHg 51%
    17:00 +18°C° 0 mm 1 mps 743 mmHg 55%
    18:00 +16°C° 0 mm 1 mps 743 mmHg 59%
    19:00 +15°C° 0 mm 1 mps 743 mmHg 63%
    20:00 +13°C° 0 mm 1 mps 743 mmHg 67%
    21:00 +13°C° 0 mm 1 mps 743 mmHg 67%
    22:00 +13°C° 0 mm 1 mps 743 mmHg 68%
    23:00 +13°C° 0 mm 2 mps 743 mmHg 68%

    Day after tomorrow, 24 October, Wednesday

    Time Temperature Precipitation Wind Pressure Humidity
    00:00 +12°C° 0 mm 2 mps 743 mmHg 69%
    01:00 +12°C° 0 mm 2 mps 742 mmHg 71%
    02:00 +12°C° 0 mm 2 mps 742 mmHg 72%
    03:00 +10°C° 0 mm 2 mps 741 mmHg 73%
    04:00 +10°C° 0 mm 2 mps 741 mmHg 74%
    05:00 +10°C° 0 mm 2 mps 740 mmHg 75%
    06:00 +12°C° 0 mm 2 mps 740 mmHg 72%
    07:00 +12°C° 0 mm 2 mps 740 mmHg 69%
    08:00 +13°C° 0 mm 2 mps 740 mmHg 66%
    09:00 +15°C° 0 mm 2 mps 739 mmHg 57%
    10:00 +17°C° 0 mm 3 mps 739 mmHg 48%
    11:00 +20°C° 0 mm 4 mps 738 mmHg 39%
    12:00 +20°C° 0 mm 4 mps 737 mmHg 39%
    13:00 +21°C° 0 mm 5 mps 737 mmHg 39%
    14:00 +21°C° 0 mm 6 mps 736 mmHg 40%
    15:00 +20°C° 0 mm 5 mps 736 mmHg 43%
    16:00 +19°C° 0 mm 5 mps 735 mmHg 47%
    17:00 +18°C° 0 mm 4 mps 735 mmHg 51%
    18:00 +17°C° 0.2 mm 4 mps 735 mmHg 56%
    19:00 +14°C° 0.2 mm 4 mps 736 mmHg 62%
    20:00 +13°C° 0.2 mm 4 mps 736 mmHg 67%
    21:00 +12°C° 0.3 mm 4 mps 737 mmHg 69%
    22:00 +11°C° 0.3 mm 4 mps 738 mmHg 70%
    23:00 +9°C° 0.3 mm 5 mps 738 mmHg 72%

    25 October, Thursday

    Time Temperature Precipitation Wind Pressure Humidity
    00:00 +8°C° 0 mm 4 mps 739 mmHg 72%
    01:00 +7°C° 0 mm 4 mps 739 mmHg 72%
    02:00 +7°C° 0 mm 3 mps 740 mmHg 72%
    03:00 +7°C° 0 mm 3 mps 740 mmHg 71%
    04:00 +5°C° 0 mm 3 mps 740 mmHg 70%
    05:00 +4°C° 0 mm 3 mps 741 mmHg 69%
    06:00 +5°C° 0 mm 3 mps 741 mmHg 65%
    07:00 +5°C° 0 mm 3 mps 742 mmHg 61%
    08:00 +5°C° 0 mm 4 mps 742 mmHg 57%
    09:00 +7°C° 0 mm 4 mps 742 mmHg 48%
    10:00 +10°C° 0 mm 4 mps 743 mmHg 39%
    11:00 +10°C° 0 mm 5 mps 743 mmHg 31%
    12:00 +12°C° 0 mm 5 mps 742 mmHg 29%
    13:00 +13°C° 0 mm 5 mps 742 mmHg 27%
    14:00 +14°C° 0 mm 5 mps 742 mmHg 26%
    15:00 +14°C° 0 mm 4 mps 741 mmHg 31%
    16:00 +13°C° 0 mm 3 mps 741 mmHg 36%
    17:00 +13°C° 0 mm 2 mps 741 mmHg 41%
    18:00 +13°C° 0 mm 2 mps 742 mmHg 46%
    19:00 +12°C° 0 mm 2 mps 742 mmHg 51%
    20:00 +10°C° 0 mm 2 mps 742 mmHg 56%
    21:00 +10°C° 0 mm 3 mps 743 mmHg 60%
    22:00 +10°C° 0 mm 3 mps 743 mmHg 65%
    23:00 +10°C° 0 mm 3 mps 743 mmHg 70%

    26 October, Friday

    Time Temperature Precipitation Wind Pressure Humidity
    00:00 +10°C° 0 mm 3 mps 743 mmHg 72%
    01:00 +10°C° 0 mm 3 mps 743 mmHg 73%
    02:00 +10°C° 0 mm 3 mps 742 mmHg 75%
    03:00 +10°C° 0 mm 2 mps 742 mmHg 76%
    04:00 +10°C° 0 mm 2 mps 742 mmHg 76%
    05:00 +10°C° 0 mm 2 mps 743 mmHg 77%
    06:00 +12°C° 0 mm 2 mps 743 mmHg 74%
    07:00 +12°C° 0 mm 2 mps 743 mmHg 71%
    08:00 +13°C° 0 mm 2 mps 744 mmHg 68%
    09:00 +16°C° 0 mm 2 mps 744 mmHg 58%
    10:00 +18°C° 0 mm 2 mps 744 mmHg 48%
    11:00 +21°C° 0 mm 2 mps 744 mmHg 39%
    12:00 +23°C° 0 mm 2 mps 744 mmHg 36%
    13:00 +23°C° 0 mm 2 mps 743 mmHg 34%
    14:00 +24°C° 0 mm 2 mps 743 mmHg 31%
    15:00 +22°C° 0 mm 1 mps 743 mmHg 36%
    16:00 +21°C° 0 mm 1 mps 743 mmHg 40%
    17:00 +19°C° 0 mm 1 mps 743 mmHg 45%
    18:00 +18°C° 0 mm 1 mps 743 mmHg 49%
    19:00 +16°C° 0 mm 1 mps 743 mmHg 52%
    20:00 +15°C° 0 mm 2 mps 744 mmHg 56%
    21:00 +14°C° 0 mm 2 mps 744 mmHg 57%
    22:00 +14°C° 0 mm 2 mps 744 mmHg 58%
    23:00 +14°C° 0 mm 2 mps 744 mmHg 59%

    27 October, Saturday

    Time Temperature Precipitation Wind Pressure Humidity
    00:00 +14°C° 0 mm 2 mps 744 mmHg 59%
    01:00 +13°C° 0 mm 2 mps 744 mmHg 59%
    02:00 +13°C° 0 mm 2 mps 744 mmHg 59%
    03:00 +13°C° 0 mm 2 mps 744 mmHg 60%
    04:00 +13°C° 0 mm 2 mps 744 mmHg 61%
    05:00 +13°C° 0 mm 2 mps 744 mmHg 62%
    06:00 +13°C° 0 mm 1 mps 744 mmHg 61%
    07:00 +14°C° 0 mm 1 mps 744 mmHg 59%
    08:00 +15°C° 0 mm 1 mps 744 mmHg 58%
    09:00 +18°C° 0 mm 1 mps 744 mmHg 52%
    10:00 +21°C° 0 mm 1 mps 744 mmHg 45%
    11:00 +23°C° 0 mm 1 mps 744 mmHg 39%
    12:00 +24°C° 0 mm 2 mps 744 mmHg 38%
    13:00 +25°C° 0 mm 2 mps 743 mmHg 36%
    14:00 +25°C° 0 mm 2 mps 743 mmHg 35%
    15:00 +24°C° 0 mm 2 mps 742 mmHg 41%
    16:00 +21°C° 0 mm 2 mps 742 mmHg 47%
    17:00 +21°C° 0 mm 1 mps 742 mmHg 54%
    18:00 +19°C° 0 mm 2 mps 742 mmHg 58%
    19:00 +18°C° 0 mm 2 mps 742 mmHg 63%
    20:00 +16°C° 0 mm 2 mps 742 mmHg 68%
    21:00 +16°C° 0 mm 2 mps 742 mmHg 70%
    22:00 +16°C° 0 mm 2 mps 742 mmHg 71%
    23:00 +16°C° 0 mm 2 mps 743 mmHg 73%

    28 October, Sunday

    Time Temperature Precipitation Wind Pressure Humidity
    00:00 +15°C° 0 mm 2 mps 743 mmHg 73%
    01:00 +15°C° 0 mm 2 mps 742 mmHg 73%
    02:00 +15°C° 0 mm 2 mps 742 mmHg 73%
    03:00 +15°C° 0 mm 2 mps 742 mmHg 73%
    04:00 +15°C° 0 mm 2 mps 742 mmHg 73%
    05:00 +15°C° 0 mm 2 mps 742 mmHg 73%
    06:00 +15°C° 0 mm 2 mps 743 mmHg 71%
    07:00 +16°C° 0 mm 2 mps 743 mmHg 70%
    08:00 +16°C° 0 mm 2 mps 743 mmHg 68%
    09:00 +19°C° 0 mm 2 mps 743 mmHg 60%
    10:00 +21°C° 0 mm 2 mps 744 mmHg 52%
    11:00 +24°C° 0 mm 2 mps 744 mmHg 44%
    12:00 +25°C° 0 mm 2 mps 743 mmHg 41%
    13:00 +26°C° 0 mm 2 mps 743 mmHg 39%
    14:00 +26°C° 0 mm 2 mps 743 mmHg 36%
    15:00 +25°C° 0 mm 2 mps 743 mmHg 42%
    16:00 +23°C° 0 mm 2 mps 742 mmHg 49%
    17:00 +21°C° 0 mm 2 mps 742 mmHg 55%
    18:00 +20°C° 0 mm 2 mps 743 mmHg 59%
    19:00 +19°C° 0 mm 2 mps 743 mmHg 63%
    20:00 +18°C° 0 mm 2 mps 743 mmHg 67%
    21:00 +18°C° 0 mm 2 mps 743 mmHg 68%
    22:00 +17°C° 0 mm 2 mps 743 mmHg 69%
    23:00 +17°C° 0 mm 2 mps 743 mmHg 70%
    Show more